Weather History for Broomfield, CO

Change the Weather History Date:

Friday, July 26, 2013

  Actual Average Record
Temperature  
Mean Temperature 70 °F -  
Max Temperature 82 °F 85 °F 95 °F (2010)
Min Temperature 59 °F 61 °F 51 °F (1991)
Cooling Degree Days 6    
Growing Degree Days 20 (Base 50)    
Moisture  
Dew Point 48 °F    
Average Humidity 54    
Maximum Humidity 72    
Minimum Humidity 17    
Precipitation  
Precipitation 0.00 in - - ()
Sea Level Pressure  
Sea Level Pressure 30.31 in    
Wind  
Wind Speed 4 mph (WNW)    
Max Wind Speed 13 mph    
Max Gust Speed -    
Visibility 10 miles    
Events      
Averages and records for this station are not official NWS values.
T = Trace of Precipitation, MM = Missing Value Source: NWS Daily Summary

Daily Weather History Graph

Daily Weather History Graph

Search for Another Location

Airport:

Trip Planner

Search our weather history database for the weather conditions in past years. The results will help you decide how hot, cold, wet, or windy it might be!

Date:

Astronomy

Jul. 26, 2013 Rise Set
Actual Time 5:53 AM MDT 8:19 PM MDT
Civil Twilight 5:23 AM MDT 8:50 PM MDT
Nautical Twilight 4:44 AM MDT 9:28 PM MDT
Astronomical Twilight 4:02 AM MDT 10:10 PM MDT
Moon 10:35 PM MDT (7/26) 10:32 AM MDT (7/26)
Length of Visible Light 15h 27m
Length of Day
14h 25m
Waning Gibbous, 79% of the Moon is Illuminated
Jul 26
Waning Gibbous
Jul 29
Last Quarter
Aug 6
New
Aug 14
First Quarter
Aug 20
Full

Hourly Weather History & Observations

Time (MDT) Temp. Dew Point Humidity Pressure Visibility Wind Dir Wind Speed Gust Speed Precip Events Conditions
12:16 AM 64.4 °F 51.8 °F 64% 30.32 in 10.0 mi SW 3.5 mph - N/A   Clear
12:36 AM 62.6 °F 51.8 °F 68% 30.32 in 10.0 mi WSW 5.8 mph - N/A   Clear
12:56 AM 62.6 °F 51.8 °F 68% 30.32 in 10.0 mi WSW 5.8 mph - N/A   Scattered Clouds
1:16 AM 62.6 °F 53.6 °F 72% 30.32 in 10.0 mi WSW 5.8 mph - N/A   Scattered Clouds
1:36 AM 62.6 °F 53.6 °F 72% 30.32 in 10.0 mi WSW 4.6 mph - N/A   Clear
1:56 AM 62.6 °F 51.8 °F 68% 30.32 in 10.0 mi Calm Calm - N/A   Clear
2:16 AM 62.6 °F 51.8 °F 68% 30.32 in 10.0 mi Calm Calm - N/A   Scattered Clouds
2:35 AM 62.6 °F 51.8 °F 68% 30.32 in 10.0 mi NNE 5.8 mph - N/A   Scattered Clouds
2:56 AM 62.6 °F 51.8 °F 68% 30.32 in 10.0 mi North 4.6 mph - N/A   Mostly Cloudy
3:16 AM 60.8 °F 51.8 °F 72% 30.32 in 10.0 mi Calm Calm - N/A   Scattered Clouds
3:36 AM 60.8 °F 51.8 °F 72% 30.32 in 10.0 mi West 3.5 mph - N/A   Clear
3:56 AM 60.8 °F 51.8 °F 72% 30.32 in 10.0 mi WNW 5.8 mph - N/A   Clear
4:16 AM 60.8 °F 51.8 °F 72% 30.31 in 10.0 mi NW 6.9 mph - N/A   Clear
4:36 AM 60.8 °F 50.0 °F 68% 30.31 in 10.0 mi NW 8.1 mph - N/A   Clear
4:55 AM 60.8 °F 50.0 °F 68% 30.31 in 10.0 mi WNW 8.1 mph - N/A   Clear
5:16 AM 60.8 °F 48.2 °F 63% 30.32 in 10.0 mi WNW 8.1 mph - N/A   Clear
5:36 AM 62.6 °F 48.2 °F 59% 30.32 in 10.0 mi West 3.5 mph - N/A   Clear
5:47 AM 59.0 °F 48.2 °F 67% 30.32 in 30.0 mi West 4.6 mph - N/A   Mostly Cloudy
5:56 AM 60.8 °F 48.2 °F 63% 30.32 in 10.0 mi West 4.6 mph - N/A   Clear
6:46 AM 59.0 °F 50.0 °F 72% 30.33 in 30.0 mi Calm Calm - N/A   Partly Cloudy
7:46 AM 64.4 °F 48.2 °F 56% 30.34 in 30.0 mi Calm Calm - N/A   Partly Cloudy
8:53 AM 68.0 °F 50.0 °F 52% 30.36 in 30.0 mi North 6.9 mph - N/A   Clear
9:49 AM 69.8 °F 50.0 °F 49% 30.36 in 30.0 mi North 4.6 mph - N/A   Clear
10:55 AM 73.4 °F 48.2 °F 41% 30.36 in 30.0 mi SE 4.6 mph - N/A   Partly Cloudy
11:53 AM 77.0 °F 46.4 °F 34% 30.36 in 30.0 mi ESE 5.8 mph - N/A   Partly Cloudy
12:53 PM 80.6 °F 44.6 °F 28% 30.34 in 30.0 mi Variable 4.6 mph - N/A   Scattered Clouds
1:47 PM 78.8 °F 41.0 °F 26% 30.33 in 30.0 mi Calm Calm - N/A   Mostly Cloudy
2:47 PM 78.8 °F 39.2 °F 24% 30.30 in 30.0 mi West 8.1 mph - N/A   Mostly Cloudy
3:58 PM 82.4 °F 39.2 °F 21% 30.28 in 30.0 mi NNW 4.6 mph - N/A   Mostly Cloudy
4:54 PM 77.0 °F 42.8 °F 29% 30.28 in 30.0 mi SW 8.1 mph - N/A   Mostly Cloudy
5:49 PM 82.4 °F 33.8 °F 17% 30.23 in 30.0 mi SE 4.6 mph - N/A   Scattered Clouds
6:53 PM 82.4 °F 35.6 °F 19% 30.22 in 30.0 mi SE 4.6 mph - N/A   Scattered Clouds
7:47 PM 80.6 °F 37.4 °F 21% 30.22 in 30.0 mi Calm Calm - N/A   Scattered Clouds
8:47 PM 66.2 °F 48.2 °F 52% 30.25 in 30.0 mi NE 10.4 mph - N/A   Scattered Clouds
9:47 PM 64.4 °F 46.4 °F 52% 30.29 in 30.0 mi NNW 12.7 mph - N/A   Scattered Clouds
11:16 PM 62.6 °F 44.6 °F 52% 30.26 in 10.0 mi Calm Calm - N/A   Clear
11:36 PM 62.6 °F 46.4 °F 55% 30.26 in 10.0 mi Calm Calm - N/A   Clear
11:56 PM 62.6 °F 44.6 °F 52% 30.25 in 10.0 mi Calm Calm - N/A   Clear